Location: Unspecified
(45.3712°N, 0.6436°E)
Time: 19:32:56
(UTC+01:00)

N. Korean satellite - Visible Passes

Search period start: 18 February 2019 00:00
Search period end: 28 February 2019 00:00
Orbit: 457 x 510 km, 97.2° (Epoch: 17 February)

Date Brightness Start Highest point End Pass type
(mag) Time Alt. Az. Time Alt. Az. Time Alt. Az.
18 Feb 9.5 06:26:55 10° NE 06:29:33 20° E 06:32:10 10° SE visible
19 Feb 10.4 06:04:04 10° E 06:04:36 10° E 06:05:07 10° E visible
20 Feb 6.7 07:10:11 10° NNE 07:13:40 74° ESE 07:17:05 10° S visible
20 Feb 10.1 19:22:28 10° SW 19:24:45 16° W 19:27:02 10° NW visible
21 Feb 8.4 06:45:40 10° NNE 06:48:52 34° E 06:52:01 10° SSE visible
21 Feb 9.0 18:56:37 10° SSW 18:59:52 29° W 19:03:05 10° NNW visible
22 Feb 9.7 06:21:35 10° NE 06:23:58 17° E 06:26:20 10° SE visible
24 Feb 7.1 07:04:39 10° NNE 07:08:05 62° E 07:11:29 10° S visible
24 Feb 10.0 19:16:38 10° SW 19:19:10 18° W 19:21:41 10° NW visible
25 Feb 8.8 06:40:11 10° NE 06:43:16 29° E 06:46:17 10° SSE visible
26 Feb 9.9 06:16:15 10° NE 06:18:20 15° E 06:20:24 10° SE visible
27 Feb 10.7 19:37:48 10° W 19:38:30 10° W 19:39:14 10° WNW visible
